[[{"header":{"parameterUnit":"m.s-1","parameterCategory":1,"la1":30.2991,"la2":30.254,"lo1":-89.0895,"lo2":-89.0444,"dy":0.0017,"dx":0.0017,"nx":28,"ny":28,"refTime":"2024-10-11T03:00:00:Z","depth":0,"parameterNumber":2,"parameterNumberName":"U-component_of_WINDS"},"data":[0,0,0,0,0,0,0,0,0,0,0,0,0,0,0,0,0,0,0,0,0,0,0,0,0,0,0,0,0,0,0,0,0,0,0,0,0,0,0,0,0,0,0,0,0,0,0,0,0,0,0,0,0,0,0,0,0,0,0.9232,0.9233,0,0.9284,0.9285,0.9285,0.9248,0.9246,0.9244,0.9243,0.9297,0.93,0.9303,0,0,0,0,0,0,0,0,0,0,0,0,0,0.9104,0.9107,0.9232,0.9233,0.9234,0.9284,0.9285,0.9285,0.9248,0.9246,0.9244,0.9242,0.9296,0.9299,0.9303,0,0,0,0,0,0,0,0,0,0,0,0,0,0.9158,0.9107,0.9232,0.9221,0.922,0.9284,0.9285,0.9286,0.9248,0.9246,0.9243,0.9241,0.9295,0.9299,0.9304,0.9381,0,0,0.9317,0.9319,0,0,0,0,0,0,0,0,0.9155,0.9163,0.9222,0.9222,0.9221,0.9257,0.9259,0.9318,0.9249,0.9238,0.9243,0.924,0.9286,0.9291,0.9306,0.9384,0.9386,0.9318,0.932,0.9322,0.9324,0,0,0,0,0,0,0,0.9152,0.9161,0.9253,0.9223,0.9223,0.9214,0.9219,0.927,0.9275,0.9239,0.9236,0.9243,0.9285,0.9302,0.9307,0.9387,0.9317,0.9321,0.9324,0.9326,0.9535,0.9537,0,0,0,0,0,0,0.9149,0.9158,0.9251,0.9254,0.9182,0.9219,0.9224,0.9248,0.9274,0.9276,0.9245,0.9241,0.9295,0.9302,0.9309,0.9404,0.9322,0.9326,0.9329,0.9532,0.9535,0.9538,0,0,0,0,0,0,0.9146,0.9157,0.9249,0.9205,0.9216,0.9224,0.9251,0.925,0.9267,0.9279,0.928,0.9261,0.9294,0.9302,0.9364,0.9405,0.9328,0.9333,0.9528,0.9533,0.9537,0.9593,0,0,0,0,0,0,0.9142,0.9156,0.9185,0.9206,0.9219,0.9303,0.9253,0.9253,0.9275,0.927,0.9294,0.9296,0.9292,0.9358,0.9369,0.941,0.9336,0.9525,0.953,0.9535,0.9588,0.9599,0.9608,0,0,0,0,0,0.9138,0.9198,0.9187,0.9198,0.9255,0.9305,0.9312,0.9307,0.9278,0.9308,0.9316,0.9295,0.9399,0.9364,0.9376,0.9419,0.9522,0.9529,0.9535,0.9583,0.9596,0.9608,0,0,0,0,0,0,0.9181,0.9201,0.9188,0.9257,0.928,0.9299,0.9335,0.9321,0.9352,0.9347,0.9339,0.9345,0.941,0.9421,0.9382,0.9498,0.9456,0.9465,0.9488,0.9501,0.9512,0.9508,0.934,0,0,0,0,0,0.9198,0.9237,0.9252,0.9312,0.9324,0.9328,0.935,0.9344,0.9367,0.9377,0.9389,0.9413,0.9452,0.9477,0.9512,0.9589,0.9595,0.9625,0.9635,0.9644,0.9652,0.9697,0.9711,0.9559,0.9559,0.9559,0,0,0.9235,0.925,0.9275,0.9321,0.9338,0.938,0.9336,0.9381,0.9413,0.9383,0.9443,0.9454,0.948,0.9551,0.9582,0.9562,0.9695,0.9652,0.9658,0.9662,0.9705,0.9719,0.9732,0.9564,0.9563,0.9562,0,0,0.9323,0.9337,0.939,0.9409,0.9435,0.9438,0.9451,0.9473,0.9479,0.9539,0.9519,0.9557,0.9622,0.9643,0.9662,0.9762,0.9745,0.9774,0.9828,0.9872,0.9884,0.9894,0.9932,0.9946,0.9782,0.9782,0.9782,0,0.9364,0.9426,0.9419,0.9466,0.9488,0.9465,0.9519,0.9538,0.9575,0.9591,0.9567,0.9651,0.9667,0.9744,0.9769,0.9784,0.98,0.9771,0.9882,0.9893,0.9903,0.9939,0.9953,0.9785,0.9785,0.9785,0.9784,0,0.9477,0.9521,0.956,0.9598,0.9624,0.9674,0.9677,0.9704,0.9697,0.9703,0.9766,0.9785,0.9826,0.9843,0.9836,0.992,0.9907,0.9883,0.9841,0.9921,0.9955,0.9969,0.979,0.9789,0.9788,0.9787,0,0,0.9592,0.9627,0.9642,0.966,0.969,0.9724,0.9775,0.9815,0.984,0.9867,0.9911,0.9969,0.9948,0.997,0.9965,1.0003,1.0085,0.9975,0.9976,0.9997,1.0182,1.0201,1.0217,1.0074,1.0076,1.0078,1.0181,0,0.9683,0.9772,0.9768,0.9852,0.9893,0.9873,0.9918,0.9942,0.995,0.9987,0.9996,1.0038,1.0006,1.0019,1.0056,1.0067,1.0122,1.0059,1.0117,1.0119,1.0112,1.0235,1.0254,1.035,1.0194,1.0196,1.0198,0,0.98,0.9833,0.9921,0.9948,0.9965,1.0005,1.0044,1.0079,1.0107,1.011,1.0136,1.0126,1.018,1.0137,1.0213,1.017,1.0194,1.0203,1.0207,1.0213,1.0164,1.0246,1.038,1.0395,1.0218,1.0217,1.0215,0,0.9878,0.9944,1.0006,1.0022,1.0054,1.0083,1.0098,1.0123,1.0149,1.0183,1.02,1.024,1.0262,1.0294,1.0296,1.0263,1.0373,1.0329,1.0379,1.038,1.0404,1.0402,1.0545,1.0417,1.0416,1.0416,1.0416,0,0.9981,1.0036,1.0042,1.008,1.0142,1.0139,1.0201,1.0213,1.0237,1.0278,1.0263,1.0302,1.0302,1.0343,1.0345,1.0409,1.0419,1.0424,1.0425,1.0427,1.0426,1.0442,1.0437,1.042,1.0419,1.0418,1.0418,0,1.0078,1.0084,1.015,1.0176,1.0184,1.0229,1.0252,1.0289,1.0297,1.035,1.0362,1.0374,1.0422,1.0427,1.0482,1.0484,1.0562,1.0554,1.0553,1.0552,1.0603,1.0599,1.0762,1.0785,1.064,1.0641,1.0643,0,1.0143,1.0185,1.0217,1.0244,1.0261,1.0304,1.0331,1.033,1.0359,1.0396,1.043,1.0476,1.0513,1.0591,1.0606,1.0649,1.0643,1.0698,1.065,1.0652,1.0647,1.0645,1.0651,1.0707,1.0709,1.071,1.0711,0,1.026,1.0262,1.03,1.0342,1.0374,1.0407,1.0437,1.046,1.0464,1.0497,1.0547,1.0576,1.0634,1.0681,1.0724,1.0741,1.0728,1.0726,1.0741,1.0744,1.0742,1.0746,1.058,1.0722,1.0721,1.072,1.072,1.0719,1.0344,1.0382,1.0411,1.0456,1.0479,1.0509,1.0547,1.056,1.0601,1.0648,1.0646,1.0701,1.0731,1.0788,1.0808,1.0853,1.0835,1.0855,1.086,1.0865,1.0872,1.0734,1.086,1.086,1.086,1.0859,1.0859,0,1.0462,1.048,1.0522,1.0566,1.0602,1.0587,1.0621,1.0652,1.0701,1.073,1.0768,1.0827,1.0873,1.0893,1.0939,1.0971,1.0967,1.0984,1.0982,1.0987,1.0884,1.0868,1.0987,1.0987,1.0987,1.0987,1.0987,1.0987,1.0527,1.0592,1.0598,1.0675,1.0693,1.0747,1.0768,1.0796,1.082,1.0886,1.0925,1.0938,1.0964,1.1013,1.1057,1.1061,1.108,1.11,1.1103,1.1006,1.0993,1.0981,1.0966,1.1104,1.1104,1.1202,1.1203,1.1203]},{"header":{"parameterUnit":"m.s-1","parameterCategory":1,"la1":30.2991,"la2":30.254,"lo1":-89.0895,"lo2":-89.0444,"dy":0.0017,"dx":0.0017,"nx":28,"ny":28,"refTime":"2024-10-11T03:00:00:Z","depth":0,"parameterNumber":3,"parameterNumberName":"V-component_of_WINDS"},"data":[0,0,0,0,0,0,0,0,0,0,0,0,0,0,0,0,0,0,0,0,0,0,0,0,0,0,0,0,0,0,0,0,0,0,0,0,0,0,0,0,0,0,0,0,0,0,0,0,0,0,0,0,0,0,0,0,0,0,-2.33,-2.33,0,-2.3357,-2.3358,-2.3358,-2.3394,-2.3394,-2.3394,-2.3394,-2.3448,-2.3449,-2.345,0,0,0,0,0,0,0,0,0,0,0,0,0,-2.3216,-2.3218,-2.3299,-2.33,-2.3301,-2.3357,-2.3358,-2.3358,-2.3394,-2.3394,-2.3394,-2.3395,-2.3447,-2.3449,-2.345,0,0,0,0,0,0,0,0,0,0,0,0,0,-2.3261,-2.3218,-2.3299,-2.3326,-2.3328,-2.3357,-2.3358,-2.3359,-2.3394,-2.3394,-2.3394,-2.3395,-2.3447,-2.3448,-2.345,-2.3455,0,0,-2.3456,-2.3457,0,0,0,0,0,0,0,0,-2.3258,-2.3264,-2.3321,-2.3324,-2.3327,-2.3369,-2.3348,-2.3391,-2.3394,-2.3369,-2.3394,-2.3395,-2.3421,-2.3425,-2.3435,-2.3458,-2.346,-2.3456,-2.3457,-2.3458,-2.3458,0,0,0,0,0,0,0,-2.3255,-2.3261,-2.3322,-2.3322,-2.3326,-2.3333,-2.334,-2.3356,-2.3392,-2.3371,-2.3374,-2.338,-2.3422,-2.3433,-2.3436,-2.3461,-2.3456,-2.3458,-2.3459,-2.3459,-2.3491,-2.3491,0,0,0,0,0,0,-2.3248,-2.3259,-2.332,-2.3324,-2.3293,-2.3334,-2.3342,-2.3355,-2.3392,-2.3398,-2.338,-2.3382,-2.3429,-2.3434,-2.3438,-2.3447,-2.3458,-2.346,-2.3461,-2.3491,-2.3491,-2.3491,0,0,0,0,0,0,-2.3246,-2.3254,-2.3318,-2.3292,-2.3301,-2.3335,-2.335,-2.3356,-2.3366,-2.3399,-2.3405,-2.3384,-2.343,-2.3435,-2.3451,-2.3449,-2.346,-2.3462,-2.3492,-2.3491,-2.3491,-2.3463,0,0,0,0,0,0,-2.3244,-2.3253,-2.3256,-2.3292,-2.3302,-2.3331,-2.335,-2.3357,-2.337,-2.3373,-2.3405,-2.341,-2.3431,-2.3448,-2.3453,-2.3452,-2.3464,-2.3492,-2.3492,-2.3491,-2.3464,-2.3462,-2.346,0,0,0,0,0,-2.3241,-2.3244,-2.3256,-2.3263,-2.3307,-2.3331,-2.3337,-2.3362,-2.337,-2.3373,-2.3394,-2.3409,-2.3449,-2.345,-2.3455,-2.3454,-2.3492,-2.3492,-2.3491,-2.3465,-2.3462,-2.346,0,0,0,0,0,0,-2.3205,-2.325,-2.3263,-2.3278,-2.3301,-2.3337,-2.3341,-2.3358,-2.3377,-2.3379,-2.3408,-2.3414,-2.3427,-2.3442,-2.3443,-2.3461,-2.3472,-2.3473,-2.3451,-2.3448,-2.3446,-2.3441,-2.3465,0,0,0,0,0,-2.3199,-2.3217,-2.3254,-2.3264,-2.3275,-2.3306,-2.3318,-2.3336,-2.3359,-2.3368,-2.3391,-2.3411,-2.3429,-2.3439,-2.3457,-2.3467,-2.3474,-2.3469,-2.3467,-2.3465,-2.3464,-2.3471,-2.3469,-2.3489,-2.3489,-2.3489,0,0,-2.3187,-2.3213,-2.3222,-2.3258,-2.3277,-2.3293,-2.3314,-2.333,-2.3342,-2.337,-2.3387,-2.3404,-2.3429,-2.3442,-2.3449,-2.3455,-2.3461,-2.3464,-2.3462,-2.3463,-2.347,-2.3468,-2.3467,-2.3489,-2.3489,-2.3489,0,0,-2.3172,-2.3194,-2.3206,-2.3226,-2.3256,-2.3277,-2.3279,-2.3314,-2.3327,-2.3345,-2.3366,-2.338,-2.3409,-2.3427,-2.3439,-2.3433,-2.3447,-2.3438,-2.3425,-2.3431,-2.3429,-2.3428,-2.3425,-2.3424,-2.3438,-2.3437,-2.3437,0,-2.3152,-2.3179,-2.3209,-2.3224,-2.3239,-2.3268,-2.3279,-2.3296,-2.3329,-2.3338,-2.3345,-2.3383,-2.3402,-2.342,-2.3419,-2.3428,-2.3431,-2.3434,-2.3428,-2.3427,-2.3426,-2.3424,-2.3423,-2.3436,-2.3436,-2.3436,-2.3437,0,-2.3153,-2.3171,-2.3176,-2.3211,-2.3226,-2.3239,-2.3269,-2.3281,-2.3298,-2.3317,-2.3335,-2.3359,-2.3382,-2.3388,-2.3403,-2.3408,-2.3411,-2.3422,-2.3434,-2.3422,-2.342,-2.342,-2.3434,-2.3435,-2.3435,-2.3435,0,0,-2.3115,-2.3168,-2.3169,-2.3185,-2.3222,-2.3235,-2.3249,-2.3275,-2.3284,-2.3306,-2.3318,-2.3343,-2.3354,-2.3368,-2.3386,-2.3392,-2.3385,-2.3403,-2.3404,-2.3398,-2.3391,-2.3381,-2.338,-2.3395,-2.3395,-2.3395,-2.3389,0,-2.3106,-2.3135,-2.3162,-2.318,-2.3197,-2.3226,-2.3238,-2.3261,-2.328,-2.3296,-2.3316,-2.3334,-2.3348,-2.3356,-2.3363,-2.3384,-2.3384,-2.3385,-2.3405,-2.3405,-2.3397,-2.3379,-2.3369,-2.3362,-2.3388,-2.3388,-2.3388,0,-2.3098,-2.3122,-2.3142,-2.3178,-2.3186,-2.3197,-2.3222,-2.3238,-2.3264,-2.3278,-2.3294,-2.3314,-2.3329,-2.334,-2.336,-2.3361,-2.337,-2.3382,-2.3382,-2.3384,-2.3395,-2.338,-2.336,-2.3358,-2.3387,-2.3387,-2.3387,0,-2.3068,-2.3105,-2.3122,-2.3135,-2.3178,-2.3184,-2.3202,-2.3229,-2.3242,-2.3264,-2.3273,-2.3295,-2.3307,-2.3324,-2.3348,-2.3354,-2.3366,-2.3379,-2.3376,-2.3376,-2.3377,-2.3376,-2.3357,-2.3384,-2.3384,-2.3384,-2.3384,0,-2.3054,-2.3065,-2.311,-2.312,-2.3133,-2.3165,-2.3177,-2.3196,-2.322,-2.3234,-2.326,-2.3271,-2.3304,-2.3319,-2.3339,-2.3352,-2.3358,-2.3368,-2.3373,-2.3365,-2.3364,-2.3371,-2.3372,-2.3384,-2.3384,-2.3384,-2.3384,0,-2.3022,-2.3053,-2.3073,-2.3113,-2.3123,-2.3131,-2.3164,-2.3174,-2.3196,-2.3213,-2.3218,-2.3251,-2.3271,-2.3298,-2.3325,-2.3338,-2.3349,-2.3357,-2.3341,-2.3343,-2.334,-2.3339,-2.3324,-2.3323,-2.3351,-2.3351,-2.3351,0,-2.3011,-2.302,-2.3062,-2.3074,-2.3091,-2.311,-2.3125,-2.3156,-2.317,-2.3202,-2.3208,-2.3231,-2.325,-2.328,-2.3305,-2.3326,-2.3334,-2.3328,-2.3337,-2.333,-2.3334,-2.3332,-2.3333,-2.3325,-2.3324,-2.3324,-2.3324,0,-2.2986,-2.3002,-2.3023,-2.305,-2.3067,-2.3089,-2.3112,-2.312,-2.3157,-2.3171,-2.3193,-2.3208,-2.3237,-2.3258,-2.3283,-2.33,-2.3317,-2.3321,-2.3321,-2.3313,-2.3303,-2.3308,-2.3333,-2.332,-2.3321,-2.3321,-2.3321,-2.3321,-2.2964,-2.2974,-2.3005,-2.3028,-2.305,-2.3071,-2.3083,-2.3108,-2.3127,-2.3155,-2.3172,-2.3193,-2.3219,-2.3255,-2.3271,-2.3286,-2.3293,-2.3294,-2.3294,-2.3293,-2.3291,-2.3302,-2.3291,-2.3291,-2.3291,-2.3291,-2.3291,0,-2.2941,-2.2963,-2.2984,-2.3017,-2.3035,-2.3053,-2.3079,-2.3093,-2.3111,-2.3136,-2.3155,-2.318,-2.3201,-2.3229,-2.3252,-2.326,-2.3268,-2.3264,-2.3263,-2.3267,-2.3283,-2.3281,-2.3257,-2.3257,-2.3257,-2.3257,-2.3257,-2.3257,-2.2931,-2.2949,-2.2968,-2.2997,-2.3019,-2.3041,-2.3055,-2.3074,-2.3094,-2.3122,-2.3141,-2.316,-2.3185,-2.3211,-2.323,-2.3238,-2.3245,-2.3238,-2.3248,-2.3263,-2.3266,-2.3269,-2.3266,-2.324,-2.324,-2.323,-2.323,-2.323]}]]